Location: Cheching
(60.0667°N, 164.2167°W)
Time: 13:18:21
(UTC+00:00)

LilacSat-2 - Pass Details

Date: 19 January 2021
Orbit: 512 x 533 km, 97.5° (Epoch: 05 March)

Event Time Altitude Azimuth Distance (km) Brightness Sun altitude
Rises 03:20:25 0° 158° (SSE) 2,632 ? -5.2°
Reaches altitude 10° 03:22:30 10° 157° (SSE) 1,751 ? -5.4°
Maximum altitude 03:26:16 78° 71° (ENE) 541 ? -5.8°
Drops below altitude 10° 03:30:06 10° 346° (NNW) 1,777 ? -6.2°
Sets 03:32:14 0° 345° (NNW) 2,675 ? -6.4°
